Flag for U.S.A. Weather past 2 weeks in Pittsburgh, Pennsylvania, U.S.A.

Now
56 °F

Overcast.


Feels Like: 56 °F
Forecast: 55 / 69 °F
Wind: No wind

Location: Allegheny County Airport

Current Time: Jun 2, 2015 at 11:49:51 AM

Latest Report: Jun 2, 2015 at 10:53 AM


Visibility: 10 mi

Pressure: 30.15 "Hg

Humidity: 75%

Dew point: 48 °F

Location of PittsburghLocation

Historic Weather in Pittsburgh — Graph

°F

Pittsburgh temperature yesterday

Maximum temperature yesterday: 60 °F (at 12:53 AM)
Minimum temperature yesterday: 49 °F (at 5:53 AM)
Average temperature yesterday: 53 °F

Past Weeks' High & Low Weather Summary

 TemperatureHumidityPressure
High85 °F (May 29, 2:53 PM)91% (May 18, 8:53 PM)30.47 "Hg (May 18, 8:53 PM)
Low42 °F (May 23, 5:53 AM)18% (May 24, 5:53 PM)29.90 "Hg (May 31, 5:53 PM)
Average65 °F61%30.13 "Hg
* Reported May 18 10:53 AM — Jun 2 10:53 AM, Pittsburgh, Weather by CustomWeather, © 2015

Note: Actual official high and low records may vary slightly from our data, if they occured in-between our weather recording intervals... More about our weather records

Advertising

Pittsburgh weather history for previous 24 hours

 ConditionsComfort  
Time TempWeatherWind HumidityBarometerVisibility
10:53 AM
Tue, Jun 2
56 °FOvercast.No wind75%30.15 "Hg10 mi
9:53 AM55 °FOvercast.6 mph77%30.15 "Hg10 mi
8:53 AM53 °FLow clouds.6 mph83%30.14 "Hg10 mi
7:53 AM53 °FLow clouds.5 mph83%30.12 "Hg10 mi
7:00 AM52 °FLow clouds.5 mph86%30.08 "Hg10 mi
5:59 AM52 °FMostly cloudy.6 mph86%30.08 "Hg8 mi
4:53 AM52 °FLow clouds.6 mph86%30.09 "Hg10 mi
3:53 AM52 °FMostly cloudy.6 mph86%30.10 "Hg10 mi
2:53 AM53 °FOvercast.6 mph80%30.11 "Hg10 mi
1:53 AM53 °FLow clouds.7 mph83%30.11 "Hg10 mi
12:53 AM53 °FLow clouds.7 mph83%30.12 "Hg10 mi
10:53 PM
Mon, Jun 1
53 °FLight rain. Low clouds.5 mph83%30.13 "Hg10 mi
9:53 PM53 °FLow clouds.5 mph83%30.14 "Hg10 mi
9:00 PM53 °FLow clouds.6 mph80%30.10 "Hg10 mi
7:53 PM54 °FOvercast.7 mph77%30.13 "Hg10 mi
6:53 PM55 °FOvercast.7 mph72%30.12 "Hg10 mi
5:53 PM55 °FOvercast.8 mph72%30.11 "Hg10 mi
4:53 PM55 °FOvercast.8 mph72%30.12 "Hg10 mi
3:53 PM56 °FOvercast.8 mph72%30.11 "Hg10 mi
2:53 PM56 °FOvercast.No wind70%30.13 "Hg10 mi
1:53 PM55 °FOvercast.6 mph69%30.14 "Hg10 mi
12:53 PM54 °FOvercast.3 mph72%30.15 "Hg10 mi
11:53 AM52 °FOvercast.3 mph75%30.14 "Hg10 mi
Weather by CustomWeather, © 2015

See weather overviewHow to use our weather pages